GW4652 Weather Reports


time (UTC)temp
C
wind
direction
speed
KPH
gust
KPH
rain 1hr
cm
rain 24hr
cm
rain mn
cm
humidity
%
barometer
mb
20260507114519 11 77 1.6 9.7 0.00 0.00 0.00 79 1021.8
20260507113016 11 43 3.2 6.4 0.00 0.00 0.00 79 1021.9
20260507111513 11 81 3.2 8.0 0.00 0.00 0.00 79 1021.9
20260507110009 11 65 3.2 8.0 0.00 0.00 0.00 78 1022.0
20260507104506 11 41 4.8 12.9 0.00 0.00 0.00 78 1022.2
20260507103018 11 51 4.8 12.9 0.00 0.00 0.00 78 1022.2
20260507101530 11 51 3.2 9.7 0.00 0.00 0.00 77 1022.3
20260507100030 11 51 4.8 9.7 0.00 0.00 0.00 78 1022.3
20260507094520 11 49 4.8 8.0 0.00 0.00 0.00 79 1022.4
20260507093014 11 70 4.8 8.0 0.00 0.00 0.00 79 1022.6
20260507091519 12 50 1.6 6.4 0.00 0.00 0.00 79 1022.7
20260507090014 12 36 1.6 9.7 0.00 0.00 0.00 79 1022.8
20260507084509 12 46 1.6 8.0 0.00 0.00 0.00 80 1022.8
20260507083012 12 55 3.2 9.7 0.00 0.00 0.00 80 1022.8
20260507081517 12 28 4.8 16.1 0.00 0.00 0.00 80 1022.8
20260507080022 12 77 4.8 14.5 0.00 0.00 0.00 80 1022.8
20260507074524 12 46 0.0 8.0 0.00 0.00 0.00 81 1022.7
20260507073006 12 340 1.6 8.0 0.00 0.00 0.00 81 1022.6
20260507071512 12 74 4.8 9.7 0.00 0.00 0.00 81 1022.6
20260507070016 12 46 6.4 14.5 0.00 0.00 0.00 81 1022.6
20260507064511 12 73 6.4 14.5 0.00 0.00 0.00 82 1022.8
20260507063011 12 76 4.8 12.9 0.00 0.00 0.00 82 1022.8
20260507061508 12 49 3.2 17.7 0.00 0.00 0.00 81 1022.8
20260507060019 12 65 6.4 17.7 0.00 0.00 0.00 81 1022.7
20260507054520 12 35 6.4 20.9 0.00 0.00 0.00 81 1022.8
20260507053022 13 57 8.0 19.3 0.00 0.00 0.00 80 1022.8
20260507051520 13 36 6.4 19.3 0.00 0.00 0.00 80 1022.7
20260507050009 13 55 12.9 22.5 0.00 0.00 0.00 79 1022.7
20260507044513 13 39 9.7 20.9 0.00 0.00 0.00 79 1022.7
20260507043012 14 51 8.0 22.5 0.00 0.00 0.00 79 1022.5
20260507041520 14 9 8.0 19.3 0.00 0.00 0.00 79 1022.3
20260507040024 14 340 8.0 20.9 0.00 0.00 0.00 79 1022.1
20260507034515 14 20 8.0 16.1 0.00 0.00 0.00 79 1021.9
20260507033016 15 40 11.3 20.9 0.00 0.00 0.00 78 1022.0
20260507031525 15 30 11.3 0.0 0.00 0.00 0.00 78 1021.7
20260507030017 15 290 0.0 16.1 0.00 0.00 0.00 68 1021.4
20260507024512 16 315 0.0 12.9 0.00 0.00 0.00 66 1021.3
20260507023012 16 313 1.6 14.5 0.00 0.00 0.00 65 1021.3
20260507021520 16 286 1.6 16.1 0.00 0.00 0.00 65 1021.2
20260507020024 17 316 3.2 14.5 0.00 0.00 0.00 64 1021.3
20260507014539 17 313 1.6 30.6 0.00 0.00 0.00 63 1021.3
20260507013021 18 310 0.0 17.7 0.00 0.00 0.00 62 1021.1
20260507011519 19 285 1.6 12.9 0.00 0.00 0.00 59 1021.0
20260507010020 21 210 0.0 0.0 0.00 0.00 0.00 56 1021.0
20260507004532 21 79 0.0 0.0 0.00 0.00 0.00 55 1020.9
20260507003014 20 79 0.0 0.0 0.00 0.00 0.00 56 1021.1
20260507001514 20 78 0.0 0.0 0.00 0.00 0.00 58 1021.3
20260507000014 20 78 0.0 3.2 0.00 0.00 0.00 58 1021.3
20260506234506 20 229 0.0 3.2 0.00 0.00 0.00 55 1021.3
20260506233008 20 229 0.0 1.6 0.00 0.00 0.00 55 1021.3
20260506231511 20 229 0.0 3.2 0.00 0.00 0.00 54 1021.5
20260506230003 20 289 0.0 3.2 0.00 0.00 0.00 56 1021.6
20260506224520 19 15 0.0 1.6 0.00 0.00 0.00 59 1021.8
20260506223005 19 51 0.0 0.0 0.00 0.00 0.00 60 1022.0
20260506221508 19 87 0.0 1.6 0.00 0.00 0.00 60 1022.1
20260506220019 19 116 0.0 0.0 0.00 0.00 0.00 61 1022.0
20260506214511 18 163 0.0 0.0 0.00 0.00 0.00 62 1021.9
20260506213008 18 69 0.0 0.0 0.00 0.00 0.00 65 1022.2
20260506211510 17 65 0.0 3.2 0.00 0.00 0.00 67 1022.3
20260506210014 18 220 0.0 0.0 0.00 0.00 0.00 65 1022.2
20260506204518 17 115 0.0 0.0 0.00 0.00 0.00 67 1022.2
20260506203027 17 120 0.0 0.0 0.00 0.00 0.00 71 1022.4
20260506201531 16 101 0.0 0.0 0.00 0.00 0.00 71 1022.6
20260506200012 16 99 0.0 6.4 0.00 0.00 0.00 71 1022.7
20260506194515 16 74 0.0 3.2 0.00 0.00 0.00 71 1022.7
20260506193011 16 104 0.0 1.6 0.00 0.00 0.00 71 1022.7
20260506191507 16 98 0.0 0.0 0.00 0.00 0.00 71 1022.6
20260506190028 15 121 0.0 3.2 0.00 0.00 0.00 73 1022.5
20260506184510 15 195 0.0 6.4 0.00 0.00 0.00 73 1022.6
20260506183028 15 200 0.0 3.2 0.00 0.00 0.00 74 1022.5
20260506181522 15 176 0.0 0.0 0.00 0.00 0.00 75 1022.6
20260506180018 -17 0.0 0.0 0.00 0.00 0.00 1022.7
20260506174516 14 210 4.8 0.0 0.00 0.00 0.00 84 1022.4
20260506173027 13 246 3.2 8.0 0.00 0.00 0.00 86 1022.4
20260506171511 13 1.6 8.0 0.00 0.00 0.00 86 1022.5
20260506170030 13 224 4.8 0.0 0.00 0.00 0.00 86 1022.3
20260506164524 -17 0.0 0.0 0.00 0.00 0.00 1022.4
20260506163025 -17 0.0 0.0 0.00 0.00 0.00 1022.1
20260506161522 -17 0.0 0.0 0.00 0.00 0.00 1022.2
20260506160021 -17 0.0 0.0 0.00 0.00 0.00 1021.4
20260506154522 -17 0.0 0.0 0.00 0.00 0.00 1021.7
20260506153016 -17 0.0 0.0 0.00 0.00 0.00 1022.3
20260506151526 12 1.6 4.8 0.00 0.00 0.00 90 1022.4
20260506150031 12 275 0.0 1.6 0.00 0.00 0.00 89 1022.3
20260506144526 12 285 0.0 6.4 0.00 0.00 0.00 89 1022.1
20260506143032 12 240 3.2 4.8 0.00 0.00 0.00 89 1021.3
20260506141524 12 211 3.2 8.0 0.00 0.00 0.00 90 1021.1
20260506140026 12 202 0.0 8.0 0.00 0.00 0.00 90 1021.1
20260506134522 12 213 1.6 6.4 0.00 0.00 0.00 90 1021.0
20260506133020 12 220 1.6 3.2 0.00 0.00 0.00 89 1021.0
20260506131520 12 205 0.0 4.8 0.00 0.00 0.00 89 1020.8
20260506130025 13 201 0.0 3.2 0.00 0.00 0.00 89 1020.8
20260506124527 13 209 3.2 6.4 0.00 0.00 0.00 88 1020.7
20260506123031 13 64 0.0 0.0 0.00 0.00 0.00 86 1020.7
20260506121528 13 64 0.0 1.6 0.00 0.00 0.00 85 1020.7
20260506120004 13 64 0.0 0.0 0.00 0.00 0.00 85 1020.6